| time (UTC) | temp C | wind direction | speed KPH | gust KPH | rain 1hr cm | rain 24hr cm | rain mn cm | humidity % | barometer mb |
| 20260502163603 | 13 | 273 | 1.6 | 6.4 | 0.00 | 0.00 | 0.00 | 44 | 1015.1 |
| 20260502162704 | 13 | 276 | 1.6 | 6.4 | 0.00 | 0.00 | 0.00 | 44 | 1015.3 |
| 20260502161803 | 12 | 288 | 0.0 | 3.2 | 0.00 | 0.00 | 0.00 | 49 | 1015.2 |
| 20260502160903 | 12 | 273 | 1.6 | 6.4 | 0.00 | 0.00 | 0.00 | 43 | 1015.4 |
| 20260502151803 | 11 | 256 | 1.6 | 3.2 | 0.00 | 0.00 | 0.00 | 54 | 1015.4 |
| 20260502150903 | 11 | 291 | 0.0 | 1.6 | 0.00 | 0.00 | 0.00 | 53 | 1015.5 |
| 20260502123603 | 9 | 225 | 1.6 | 4.8 | 0.00 | 0.00 | 0.00 | 62 | 1015.5 |
| 20260502122703 | 9 | 252 | 1.6 | 4.8 | 0.00 | 0.00 | 0.00 | 60 | 1015.5 |
| 20260502121803 | 8 | 245 | 1.6 | 3.2 | 0.00 | 0.00 | 0.00 | 60 | 1015.6 |
| 20260502120904 | 8 | 224 | 1.6 | 3.2 | 0.00 | 0.00 | 0.00 | 59 | 1015.5 |
| 20260502115403 | 8 | 238 | 1.6 | 4.8 | 0.00 | 0.00 | 0.00 | 58 | 1015.2 |
| 20260502114503 | 8 | 265 | 0.0 | 4.8 | 0.00 | 0.00 | 0.00 | 59 | 1015.2 |
| 20260502113603 | 8 | 213 | 1.6 | 6.4 | 0.00 | 0.00 | 0.00 | 57 | 1014.9 |
| 20260502112703 | 9 | 222 | 1.6 | 6.4 | 0.00 | 0.00 | 0.00 | 56 | 1014.8 |
| 20260502111803 | 9 | 226 | 1.6 | 6.4 | 0.00 | 0.00 | 0.00 | 56 | 1014.8 |
| 20260502110903 | 9 | 223 | 1.6 | 4.8 | 0.00 | 0.00 | 0.00 | 57 | 1014.9 |
| 20260502110004 | 8 | 268 | 1.6 | 3.2 | 0.00 | 0.00 | 0.00 | 60 | 1014.8 |
| 20260502105403 | 9 | 249 | 0.0 | 3.2 | 0.00 | 0.00 | 0.00 | 56 | 1014.7 |
| 20260502104503 | 8 | 238 | 1.6 | 3.2 | 0.00 | 0.00 | 0.00 | 57 | 1014.8 |
| 20260502103603 | 8 | 244 | 0.0 | 1.6 | 0.00 | 0.00 | 0.00 | 56 | 1014.7 |
| 20260502102703 | 8 | 240 | 0.0 | 1.6 | 0.00 | 0.00 | 0.00 | 56 | 1014.8 |
| 20260502101803 | 9 | 251 | 0.0 | 1.6 | 0.00 | 0.00 | 0.00 | 57 | 1014.9 |
| 20260502100925 | 9 | 0 | 0.0 | 0.0 | 0.00 | 0.00 | 0.00 | 60 | 1014.9 |
| 20260502090903 | 10 | 231 | 0.0 | 3.2 | 0.00 | 0.00 | 0.00 | 61 | 1014.8 |
| 20260502070903 | 10 | 209 | 1.6 | 9.7 | 0.00 | 0.00 | 0.00 | 70 | 1014.2 |
| 20260502070004 | 10 | 258 | 0.0 | 1.6 | 0.00 | 0.00 | 0.00 | 69 | 1014.5 |
| 20260502065403 | 10 | 254 | 0.0 | 3.2 | 0.00 | 0.00 | 0.00 | 68 | 1014.3 |
| 20260502064503 | 10 | 222 | 1.6 | 9.7 | 0.00 | 0.00 | 0.00 | 67 | 1014.2 |
| 20260502063603 | 10 | 250 | 0.0 | 1.6 | 0.00 | 0.00 | 0.00 | 69 | 1014.3 |
| 20260502062703 | 10 | 263 | 0.0 | 3.2 | 0.00 | 0.00 | 0.00 | 68 | 1014.5 |
| 20260502061803 | 10 | 237 | 0.0 | 4.8 | 0.00 | 0.00 | 0.00 | 69 | 1014.4 |
| 20260502060903 | 11 | 216 | 0.0 | 4.8 | 0.00 | 0.00 | 0.00 | 65 | 1014.6 |
| 20260502060003 | 11 | 229 | 1.6 | 6.4 | 0.00 | 0.00 | 0.00 | 65 | 1014.9 |
| 20260502055403 | 11 | 238 | 1.6 | 6.4 | 0.00 | 0.00 | 0.00 | 64 | 1014.6 |
| 20260502054503 | 11 | 265 | 0.0 | 1.6 | 0.00 | 0.00 | 0.00 | 65 | 1014.3 |
| 20260502053603 | 11 | 256 | 0.0 | 3.2 | 0.00 | 0.00 | 0.00 | 67 | 1014.4 |
| 20260502052703 | 11 | 231 | 1.6 | 3.2 | 0.00 | 0.00 | 0.00 | 67 | 1014.3 |
| 20260502051803 | 11 | 233 | 1.6 | 3.2 | 0.00 | 0.00 | 0.00 | 64 | 1014.6 |
| 20260502050903 | 12 | 221 | 1.6 | 6.4 | 0.00 | 0.00 | 0.00 | 66 | 1014.4 |
| 20260502050024 | 12 | 225 | 0.0 | 4.8 | 0.00 | 0.00 | 0.00 | 66 | 1014.5 |
| 20260502045403 | 12 | 232 | 0.0 | 3.2 | 0.00 | 0.00 | 0.00 | 65 | 1014.5 |
| 20260502044504 | 12 | 227 | 0.0 | 4.8 | 0.00 | 0.00 | 0.00 | 65 | 1014.6 |
| 20260502043603 | 12 | 226 | 1.6 | 11.3 | 0.00 | 0.00 | 0.00 | 64 | 1014.5 |
| 20260502042703 | 12 | 234 | 1.6 | 11.3 | 0.00 | 0.00 | 0.00 | 64 | 1014.3 |
| 20260502041803 | 12 | 241 | 0.0 | 3.2 | 0.00 | 0.00 | 0.00 | 65 | 1014.4 |
| 20260502040903 | 13 | 241 | 0.0 | 3.2 | 0.00 | 0.00 | 0.00 | 64 | 1014.3 |
| 20260502040004 | 13 | 257 | 0.0 | 3.2 | 0.00 | 0.00 | 0.00 | 64 | 1014.3 |
| 20260502035403 | 13 | 233 | 0.0 | 3.2 | 0.00 | 0.00 | 0.00 | 64 | 1014.4 |
| 20260502034503 | 13 | 224 | 1.6 | 6.4 | 0.00 | 0.00 | 0.00 | 63 | 1014.2 |
| 20260502033604 | 13 | 237 | 1.6 | 4.8 | 0.00 | 0.00 | 0.00 | 62 | 1014.3 |
| 20260502032703 | 13 | 239 | 1.6 | 4.8 | 0.00 | 0.00 | 0.00 | 61 | 1014.1 |
| 20260502031803 | 13 | 229 | 1.6 | 6.4 | 0.00 | 0.00 | 0.00 | 61 | 1013.9 |
| 20260502030903 | 14 | 242 | 1.6 | 6.4 | 0.00 | 0.00 | 0.00 | 59 | 1013.7 |
| 20260502030003 | 14 | 240 | 1.6 | 4.8 | 0.00 | 0.00 | 0.00 | 57 | 1013.6 |
| 20260502025403 | 14 | 231 | 0.0 | 4.8 | 0.00 | 0.00 | 0.00 | 57 | 1013.5 |
| 20260502024503 | 14 | 225 | 1.6 | 6.4 | 0.00 | 0.00 | 0.00 | 57 | 1013.8 |
| 20260502023603 | 15 | 246 | 0.0 | 3.2 | 0.00 | 0.00 | 0.00 | 60 | 1013.6 |
| 20260502022703 | 15 | 218 | 1.6 | 9.7 | 0.00 | 0.00 | 0.00 | 56 | 1013.2 |
| 20260502021803 | 15 | 238 | 1.6 | 4.8 | 0.00 | 0.00 | 0.00 | 59 | 1013.0 |
| 20260502020903 | 15 | 273 | 0.0 | 1.6 | 0.00 | 0.00 | 0.00 | 61 | 1012.7 |
| 20260502020024 | 15 | 268 | 0.0 | 1.6 | 0.00 | 0.00 | 0.00 | 62 | 1012.7 |
| 20260502015403 | 14 | 229 | 1.6 | 4.8 | 0.00 | 0.00 | 0.00 | 65 | 1012.5 |
| 20260502014503 | 15 | 218 | 1.6 | 3.2 | 0.00 | 0.00 | 0.00 | 59 | 1012.3 |
| 20260502013603 | 14 | 324 | 0.0 | 1.6 | 0.00 | 0.00 | 0.00 | 63 | 1012.4 |
| 20260502012724 | 14 | 294 | 0.0 | 1.6 | 0.00 | 0.00 | 0.00 | 66 | 1012.3 |
| 20260502011803 | 14 | 260 | 0.0 | 3.2 | 0.00 | 0.00 | 0.00 | 61 | 1012.1 |
| 20260502010903 | 13 | 244 | 1.6 | 6.4 | 0.00 | 0.00 | 0.00 | 65 | 1012.3 |
| 20260502010003 | 14 | 230 | 0.0 | 3.2 | 0.00 | 0.00 | 0.00 | 62 | 1011.9 |
| 20260502005403 | 15 | 243 | 0.0 | 3.2 | 0.00 | 0.00 | 0.00 | 60 | 1011.8 |
| 20260502004503 | 15 | 239 | 0.0 | 3.2 | 0.00 | 0.00 | 0.00 | 59 | 1011.6 |
| 20260502003603 | 15 | 237 | 1.6 | 3.2 | 0.00 | 0.00 | 0.00 | 58 | 1011.6 |
| 20260502002724 | 15 | 325 | 0.0 | 1.6 | 0.00 | 0.00 | 0.00 | 61 | 1011.5 |
| 20260502001803 | 15 | 295 | 1.6 | 6.4 | 0.00 | 0.00 | 0.00 | 61 | 1011.2 |
| 20260502000903 | 16 | 264 | 1.6 | 4.8 | 0.00 | 0.00 | 0.00 | 54 | 1011.1 |
| 20260502000005 | 16 | 231 | 3.2 | 6.4 | 0.00 | 0.00 | 0.00 | 55 | 1010.8 |
| 20260501235426 | 16 | 241 | 3.2 | 6.4 | 0.00 | 0.00 | 0.00 | 54 | 1010.6 |
| 20260501234526 | 16 | 248 | 3.2 | 11.3 | 0.00 | 0.00 | 0.00 | 53 | 1010.4 |
| 20260501233605 | 16 | 282 | 3.2 | 9.7 | 0.00 | 0.00 | 0.00 | 53 | 1010.6 |
| 20260501232705 | 16 | 250 | 3.2 | 9.7 | 0.00 | 0.00 | 0.00 | 51 | 1010.6 |
| 20260501231826 | 16 | 211 | 3.2 | 6.4 | 0.00 | 0.00 | 0.00 | 52 | 1010.5 |
| 20260501230905 | 17 | 238 | 3.2 | 6.4 | 0.00 | 0.00 | 0.00 | 53 | 1010.7 |
| 20260501230005 | 17 | 252 | 3.2 | 9.7 | 0.00 | 0.00 | 0.00 | 51 | 1010.6 |
| 20260501225404 | 17 | 258 | 1.6 | 6.4 | 0.00 | 0.00 | 0.00 | 51 | 1010.6 |
| 20260501224505 | 17 | 252 | 3.2 | 11.3 | 0.00 | 0.00 | 0.00 | 50 | 1010.7 |
| 20260501223626 | 17 | 245 | 1.6 | 6.4 | 0.00 | 0.00 | 0.00 | 49 | 1010.6 |
| 20260501222705 | 17 | 247 | 3.2 | 11.3 | 0.00 | 0.00 | 0.00 | 49 | 1010.5 |
| 20260501221805 | 18 | 226 | 3.2 | 12.9 | 0.00 | 0.00 | 0.00 | 48 | 1010.6 |
| 20260501220905 | 18 | 229 | 3.2 | 14.5 | 0.00 | 0.00 | 0.00 | 47 | 1010.8 |
| 20260501220005 | 18 | 236 | 3.2 | 9.7 | 0.00 | 0.00 | 0.00 | 48 | 1010.8 |
| 20260501215404 | 18 | 242 | 3.2 | 9.7 | 0.00 | 0.00 | 0.00 | 46 | 1010.9 |
| 20260501214505 | 18 | 239 | 4.8 | 16.1 | 0.00 | 0.00 | 0.00 | 47 | 1011.3 |
| 20260501213605 | 18 | 235 | 4.8 | 11.3 | 0.00 | 0.00 | 0.00 | 47 | 1010.9 |
| 20260501212704 | 19 | 246 | 3.2 | 9.7 | 0.00 | 0.00 | 0.00 | 44 | 1011.1 |
| 20260501211825 | 19 | 253 | 3.2 | 9.7 | 0.00 | 0.00 | 0.00 | 44 | 1011.4 |
| 20260501210904 | 18 | 231 | 3.2 | 6.4 | 0.00 | 0.00 | 0.00 | 46 | 1011.2 |
| 20260501210005 | 20 | 246 | 4.8 | 11.3 | 0.00 | 0.00 | 0.00 | 45 | 1011.4 |
| 20260501205405 | 19 | 260 | 3.2 | 11.3 | 0.00 | 0.00 | 0.00 | 42 | 1011.4 |
| 20260501204505 | 19 | 249 | 3.2 | 6.4 | 0.00 | 0.00 | 0.00 | 45 | 1011.3 |
| 20260501203604 | 18 | 239 | 3.2 | 9.7 | 0.00 | 0.00 | 0.00 | 44 | 1011.5 |
| 20260501202705 | 18 | 235 | 3.2 | 11.3 | 0.00 | 0.00 | 0.00 | 44 | 1011.8 |
| 20260501201804 | 20 | 240 | 3.2 | 9.7 | 0.00 | 0.00 | 0.00 | 40 | 1011.7 |
| 20260501200905 | 20 | 228 | 4.8 | 12.9 | 0.00 | 0.00 | 0.00 | 42 | 1011.9 |
| 20260501200005 | 21 | 234 | 4.8 | 11.3 | 0.00 | 0.00 | 0.00 | 39 | 1012.0 |
| 20260501195404 | 20 | 232 | 4.8 | 12.9 | 0.00 | 0.00 | 0.00 | 40 | 1012.3 |
| 20260501194505 | 21 | 233 | 4.8 | 16.1 | 0.00 | 0.00 | 0.00 | 39 | 1012.4 |
| 20260501193604 | 21 | 225 | 4.8 | 9.7 | 0.00 | 0.00 | 0.00 | 39 | 1012.5 |
| 20260501192705 | 19 | 270 | 3.2 | 9.7 | 0.00 | 0.00 | 0.00 | 45 | 1012.7 |
| 20260501191804 | 19 | 258 | 4.8 | 12.9 | 0.00 | 0.00 | 0.00 | 41 | 1012.9 |
| 20260501190905 | 20 | 237 | 4.8 | 14.5 | 0.00 | 0.00 | 0.00 | 39 | 1013.2 |
| 20260501190005 | 20 | 263 | 3.2 | 12.9 | 0.00 | 0.00 | 0.00 | 38 | 1013.3 |
| 20260501185405 | 19 | 284 | 4.8 | 12.9 | 0.00 | 0.00 | 0.00 | 44 | 1013.3 |
| 20260501184526 | 20 | 253 | 4.8 | 11.3 | 0.00 | 0.00 | 0.00 | 42 | 1013.5 |
| 20260501183605 | 18 | 278 | 4.8 | 14.5 | 0.00 | 0.00 | 0.00 | 45 | 1013.6 |
| 20260501182705 | 18 | 284 | 4.8 | 11.3 | 0.00 | 0.00 | 0.00 | 44 | 1013.6 |
| 20260501181826 | 18 | 266 | 4.8 | 11.3 | 0.00 | 0.00 | 0.00 | 43 | 1013.9 |
| 20260501180905 | 18 | 246 | 4.8 | 12.9 | 0.00 | 0.00 | 0.00 | 43 | 1014.0 |
| 20260501180004 | 19 | 247 | 4.8 | 11.3 | 0.00 | 0.00 | 0.00 | 43 | 1014.2 |
| 20260501175404 | 17 | 270 | 4.8 | 12.9 | 0.00 | 0.00 | 0.00 | 47 | 1014.4 |
| 20260501174504 | 17 | 265 | 4.8 | 12.9 | 0.00 | 0.00 | 0.00 | 45 | 1014.4 |
| 20260501173604 | 18 | 220 | 4.8 | 12.9 | 0.00 | 0.00 | 0.00 | 46 | 1014.5 |